SPACEWAY 2

Last updated on Sat Feb 15 2025 00:02:40 GMT+0000 (Coordinated Universal Time)

1 28903U 05046B 25045.64145819 .00000055 00000+0 00000+0 0 9999 2 28903 4.2193 77.4131 0001618 35.0123 124.0573 0.99061893 46441

Satellite not in orbit

SPACEWAY 2